Location: Budapest
(47.4979°N, 19.0402°E)
Time: 22:12:53
(UTC+02:00)

Vanguard 1 - All Passes

Search period start: 16 August 2018 00:00
Search period end: 26 August 2018 00:00
Orbit: 650 x 3833 km, 34.3° (Epoch: 15 August)

Date Brightness Start Highest point End Pass type
(mag) Time Alt. Az. Time Alt. Az. Time Alt. Az.
16 Aug - 13:25:29 10° SSW 13:43:36 31° SE 13:59:43 10° E daylight
16 Aug - 15:45:52 10° SW 16:07:24 49° SSE 16:22:54 10° E daylight
16 Aug - 18:11:07 10° WSW 18:31:02 50° S 18:43:09 10° ESE daylight
16 Aug - 20:38:35 10° W 20:52:12 31° SW 21:00:47 10° SSE visible
17 Aug - 11:32:31 10° SSE 11:42:01 14° SE 11:51:31 10° ESE daylight
17 Aug - 13:44:50 10° SSW 14:04:18 36° SSE 14:21:21 10° E daylight
17 Aug - 16:06:34 10° WSW 16:28:26 52° S 16:43:49 10° ESE daylight
17 Aug - 18:32:26 10° W 18:51:52 48° SSW 19:03:41 10° SE daylight
17 Aug - 21:00:27 10° W 21:12:27 25° SW 21:20:26 10° S visible
18 Aug - 11:48:47 10° S 12:02:17 20° SE 12:15:52 10° E daylight
18 Aug - 14:04:37 10° SW 14:25:06 42° SSE 14:42:42 10° E daylight
18 Aug - 16:27:28 10° WSW 16:49:28 54° S 17:04:40 10° ESE daylight
18 Aug - 18:53:50 10° W 19:12:35 44° SSW 19:24:06 10° SE daylight
18 Aug - 21:22:44 10° W 21:32:33 20° SW 21:39:36 10° S visible
19 Aug - 12:06:45 10° S 12:22:38 26° SE 12:38:39 10° E daylight
19 Aug - 14:24:46 10° SW 14:45:59 47° SSE 15:03:54 10° E daylight
19 Aug - 16:48:30 10° WSW 17:10:29 54° S 17:25:26 10° ESE daylight
19 Aug - 19:15:20 10° W 19:33:11 40° SSW 19:44:20 10° SE daylight
19 Aug - 21:45:53 10° W 21:52:32 14° SW 21:57:49 10° SSW visible
20 Aug - 12:25:35 10° SSW 12:43:05 32° SE 13:00:44 10° E daylight
20 Aug - 14:45:12 10° SW 15:06:57 51° SSE 15:25:00 10° E daylight
20 Aug - 17:09:41 10° WSW 17:31:27 53° S 17:46:07 10° ESE daylight
20 Aug - 19:36:58 10° W 19:53:37 35° SW 20:04:19 10° SSE daylight
21 Aug - 10:33:14 10° SSE 10:41:59 14° SE 10:51:17 10° E daylight
21 Aug - 12:45:00 10° SSW 13:03:39 37° SSE 13:22:25 10° E daylight
21 Aug - 15:05:52 10° WSW 15:27:59 54° S 15:45:59 10° E daylight
21 Aug - 17:30:57 10° W 17:52:21 51° SSW 18:06:41 10° SE daylight
21 Aug - 19:58:47 10° W 20:13:55 29° SW 20:24:02 10° SSE visible
22 Aug - 10:49:38 10° SSE 11:02:03 20° SE 11:15:45 10° E daylight
22 Aug - 13:04:49 10° SW 13:24:21 43° SSE 13:43:52 10° E daylight
22 Aug - 15:26:42 10° WSW 15:49:03 55° S 16:06:54 10° ESE daylight
22 Aug - 17:52:18 10° W 18:13:09 47° SSW 18:27:07 10° SE daylight
22 Aug - 20:20:58 10° W 20:34:02 23° SW 20:43:18 10° S visible
23 Aug - 11:07:41 10° S 11:22:14 25° SE 11:38:39 10° E daylight
23 Aug - 13:24:58 10° SW 13:45:10 48° SSE 14:05:08 10° E daylight
23 Aug - 15:47:41 10° WSW 16:10:07 56° S 16:27:44 10° ESE daylight
23 Aug - 18:13:46 10° W 18:33:49 43° SSW 18:47:23 10° SE daylight
23 Aug - 20:43:47 10° W 20:54:02 18° SW 21:01:52 10° SSW visible
24 Aug - 11:26:36 10° SSW 11:42:33 31° SE 12:00:49 10° E daylight
24 Aug - 13:45:22 10° SW 14:06:05 52° SSE 14:26:18 10° E daylight
24 Aug - 16:08:47 10° WSW 16:31:10 55° S 16:48:28 10° ESE daylight
24 Aug - 18:35:20 10° W 18:54:20 38° SW 19:07:24 10° SSE daylight
24 Aug - 21:08:15 10° WSW 21:13:53 12° WSW 21:18:46 10° SW visible
25 Aug - 09:35:14 10° SE 09:42:10 13° ESE 09:49:47 10° ESE daylight
25 Aug - 11:46:03 10° SSW 12:02:59 37° SE 12:22:36 10° E daylight
25 Aug - 14:05:59 10° WSW 14:27:06 55° S 14:47:23 10° E daylight
25 Aug - 16:29:59 10° W 16:52:09 53° SSW 17:09:05 10° SE daylight
25 Aug - 18:57:07 10° W 19:14:42 32° SW 19:27:08 10° SSE daylight
